Regional Weather Roundup
Issued by NWS Goodland, KS

Home | Current Version | Previous Version | Graphics & Text | Print | Product List | Glossary On
Versions: 1 2 3 4 5 6 7 8 9 10 11 12 13 14 15 16 17 18 19 20 21 22 23 24 25 26 27 28 29 30 31 32 33 34 35 36 37 38 39 40 41 42 43 44 45 46 47 48 49 50
000
ASUS43 KGLD 061759
RWRGLD

GOODLAND FORECAST AREA HOURLY WEATHER ROUNDUP
NATIONAL WEATHER SERVICE GOODLAND KS
1200 PM MDT WED MAY 06 2015

...OFFICIAL OBSERVATIONS...

CITY           SKY/WX    TMP DP  RH WIND       PRES   REMARKS
GOODLAND KS    LGT RAIN  58  54  86 S14       29.67F
HILL CITY KS   CLOUDY    67  56  67 S21G26    29.68F
IMPERIAL NEB   CLOUDY    60  52  74 SE15      29.66S
MCCOOK NEB     CLOUDY    63  53  70 S18       29.68S
AKRON CO       CLOUDY    57  53  86 W23       29.64F
BURLINGTON CO  LGT RAIN  59  52  77 W18       29.69S
LIMON CO       CLOUDY    57  48  72 W6        29.72S
$$

...UNOFFICIAL OBSERVATIONS...

CITY           SKY/WX    TMP DP  RH WIND       PRES   REMARKS
COLBY KS       CLOUDY    57  55  94 S14       29.70F
GOVE KS          N/A     66  32  28 MISG        N/A
LENORA KS        N/A     64  32  30 MISG        N/A
NORTON KS      CLOUDY    64  54  68 SE17G23   29.69F
SHARON SPRINGS   N/A     60  56  86 MISG        N/A
KIT CARSON CO    N/A     60  53  79 MISG        N/A
YUMA CO          N/A     56  54  92 SW14        N/A
$$



USA.gov is the U.S. government's official web portal to all federal, state and local government web resources and services.